Regional Weather Roundup
Issued by NWS Wakefield, VA

Home | Current Version | Previous Version | Text Only | Print | Product List | Glossary Off
Versions: 1 2 3 4 5 6 7 8 9 10 11 12 13 14 15 16 17 18 19 20 21 22 23 24 25 26 27 28 29 30 31 32 33 34 35 36 37 38 39 40 41 42 43 44 45 46 47 48 49 50

332
ASUS41 KAKQ 281615
RWRAKQ

REGIONAL WEATHER ROUNDUP
NATIONAL WEATHER SERVICE WAKEFIELD VA
1200 PM EDT THU JUL 28 2016

Note: "fair" indicates few or no clouds below 12,000 feet with no
significant weather and/or obstructions to visibility. * = Denotes
station may not report precipitation (e.g., rain,snow,etc.),
thunder or fog.

VAZ042-051-052>054-056-281700-
NORTHERN VIRGINIA

CITY           SKY/WX    TMP DP  RH WIND       PRES   REMARKS
WASH NATIONAL  PTSUNNY   88  74  63 S7        29.89F HX  96
DULLES         PTSUNNY   88  71  57 VRB5      29.90F
FORT BELVOIR   FAIR      86  74  68 S3        29.89
QUANTICO       PTSUNNY   85  74  69 S5        29.90S
FREDERICKSBRG* FAIR      84  75  74 CALM      29.89F
STAFFORD*      FAIR      85  74  70 SW3       29.94F
WARRENTON      FAIR      85  69  58 CALM      29.90F
CULPEPER*      FAIR      84  76  75 CALM      29.91F
MANASSAS*      NOT AVBL
LEESBURG*      FAIR      86  77  74 W5        29.92S HX  97
WINCHESTER     PTSUNNY   82  72  69 CALM      29.92F
FRONT ROYAL*   FAIR      84  73  70 CALM      29.91F
LURAY*         NOT AVBL
$$

VAZ048-049-060>072-079>083-281700-
CENTRAL AND SOUTH CENTRAL VIRGINIA

CITY           SKY/WX    TMP DP  RH WIND       PRES   REMARKS
RICHMOND       PTSUNNY   88  74  63 S8        29.90S HX  96
CHESTERFIELD*  FAIR      90  66  45 SW6       29.91F
PETERSBURG*    FAIR      91  75  58 S3        29.91F HX 101
HANOVER        FAIR      90  71  53 W6        29.91F HX  96
TAPPAHANNOCK*  FAIR      91  71  52 W6        29.90F HX  97
QUINTON*       FAIR      89  76  65 CALM      29.90S HX 100
CHARLOTTSVILLE FAIR      90  71  53 NE3       29.91F HX  96
GORDONSVILLE*  FAIR      87  74  64 N3        29.91F HX  95
ORANGE*          N/A     86  73  66 CALM      29.93F
LOUISA*        FAIR      90  77  66 CALM      29.90F HX 102
BUMPASS*       FAIR      84  75  74 CALM      29.90F
FARMVILLE*     FAIR      90  71  53 SW3       29.90F HX  95
CREWE*         NOT AVBL
FORT PICKETT*  FAIR      89  77  69 S5        29.92F HX 101
CHASE CITY*    FAIR      87  73  64 SE3       29.92F
CLARKSVILLE*   FAIR      88  77  70 CALM      29.91F HX 100
SOUTH HILL*    FAIR      87  77  71 CALM      29.98F HX  98
LAWRENCEVILLE* FAIR      89  77  67 CALM      29.92S HX 100
EMPORIA*       FAIR      90  75  62 CALM      29.92F HX 100
$$

VAZ088>098-281700-
SOUTHEAST VIRGINIA

CITY           SKY/WX    TMP DP  RH WIND       PRES   REMARKS
NORFOLK        FAIR      90  78  68 NE9       29.89F HX 104
VIRGINIA BEACH PTSUNNY   97  76  50 SW8       29.89F HX 110
NORFOLK NAVAL  FAIR      94  77  57 VRB5      29.90F HX 108
WEST POINT*    FAIR      90  75  61 S6        29.91S HX 100
SALUDA*        FAIR      88  81  79 E3        29.89S HX 106
NEWPORT NEWS   FAIR      90  77  65 VRB3      29.90S HX 103
LANGLEY AFB    MOSUNNY   91  79  68 VRB5      29.89  HX 106
FORT EUSTIS    FAIR      90  79  71 S6        29.88  HX 106
WILLIAMSBURG*  FAIR      91  79  66 S7        29.91S HX 107
HR EXEC AP*    FAIR      91  79  66 S5        29.91F HX 107
FRANKLIN*      FAIR      90  76  63 CALM      29.90F HX 101
US460-WAKEFLD  FAIR      91  75  59 SW6       29.90F HX 101
$$

VAZ020-022-025-037-045-281700-
WEST CENTRAL AND SOUTHWEST VIRGINIA

CITY           SKY/WX    TMP DP  RH WIND       PRES   REMARKS
STAUNTON*      FAIR      83  73  71 CALM      29.96F
WAYNESBORO*    PTSUNNY   85  71  63 CALM      29.96F
HOT SPRINGS VA FAIR      75  68  78 W8        30.09F
LYNCHBURG      FAIR      87  70  56 VRB3      29.94F
DANVILLE       FAIR      87  74  64 CALM      29.93F HX  95
SOUTH BOSTON*  FAIR     N/A N/A N/A CALM      29.91F
MARTINSVILLE   FAIR      87  74  65 CALM      29.97F HX  96
ROANOKE        FAIR      86  71  60 VRB6      29.97F
BLACKSBURG     PTSUNNY   81  73  76 CALM      30.05F
DUBLIN*        CLOUDY    84  70  62 SW8       30.03F
MARION*        PTSUNNY   80  71  73 W10       30.07F
HILLSVILLE*    CLOUDY    79  70  74 W3        30.05F
RICHLANDS*     CLOUDY    75  70  84 SW5       30.05F
WISE*          CLOUDY    77  68  73 SW12      30.06S
ABINGDON*      CLOUDY    80  72  78 SW6       30.03F
$$

MDZ021>025-VAZ099-100-281700-
SOUTHERN MARYLAND AND THE DELMARVA PENINSULA

CITY           SKY/WX    TMP DP  RH WIND       PRES   REMARKS
PATUXENT RIVER CLOUDY    86  75  69 SE8       29.89S HX  95
BAY BRIDGE APT CLOUDY    90  77  66 S7        29.89S HX 102
LEONARDTOWN    CLOUDY    86  73  66 S3        29.91
DOVER          MOSUNNY   88  78  73 E10       29.88  HX 102
GEORGETOWN     PTSUNNY   92  73  53 S9        29.90S HX 100
EASTON         PTSUNNY   90  81  74 SE6       29.93S HX 108
CAMBRIDGE      CLOUDY    88  77  70 S5        29.88F HX 100
SALISBURY      MOSUNNY   87  77  72 S9        29.89F HX  99
OCEAN CITY     SUNNY     85  79  82 VRB7      29.91F HX  98
WALLOPS ISLAND FAIR      86  79  79 SE10      29.91S HX  99
ACCOMACK*      FAIR      90  79  70 SE9       29.90S HX 105
$$

NCZ012>017-030>032-281700-
NORTH CENTRAL AND EASTERN NORTH CAROLINA

CITY           SKY/WX    TMP DP  RH WIND       PRES   REMARKS
ROANOKE RAPIDS FAIR      88  77  70 CALM      29.92F HX 100
RALEIGH        MOSUNNY   91  75  59 VRB7      29.93F HX 101
ELIZABETH CITY SUNNY     91  79  67 S8        29.91F HX 107
AHOSKIE*       SUNNY     89  79  74 CALM      29.91F HX 104
EDENTON*       SUNNY     92  76  60 SW5       29.92F HX 104
CURRITUCK*     SUNNY     91  79  67 S6        29.92S HX 107
KILL DEVIL HLS SUNNY     94  77  58 CALM      29.92S HX 108
MANTEO           N/A     88  81  78 S6        29.93S HX 105
CAPE HATTERAS  SUNNY     87  81  82 SW9       29.94F HX 104
TARBORO*       FAIR      92  80  67 CALM      29.92F HX 109
GOLDSBORO      SUNNY     95  74  50 SW12G18   29.91  HX 105
WASHINGTON     SUNNY     91  79  67 SW6       29.91F HX 107
GREENVILLE     SUNNY     95  79  59 SW7       29.93F HX 112
NEW BERN       SUNNY     93  78  61 S5        29.94F HX 108
WILMINGTON     SUNNY     93  73  52 SW9       29.95F HX 102
$$

VAZ048-281700-
ELSEWHERE

CITY           SKY/WX    TMP DP  RH WIND       PRES   REMARKS
HARRISBURG PA  CLOUDY    85  73  67 CALM      29.89F
BALTIMORE      CLOUDY    89  74  60 SE6       29.88F HX  98
ANNAPOLIS        N/A    N/A N/A N/A MISG      29.88F
ANDREWS AFB    FAIR      87  74  66 VRB3      29.89  HX  95
PHILADELPHIA   PTSUNNY   91  67  44 SE5       29.90F
GREENSBORO     MOSUNNY   87  72  60 CALM      29.94F
ROCKY MOUNT    SUNNY     92  79  65 SW8       29.92F HX 108
$$

VAZ100-281700-
MARINE

STATION/POSITION TIME  TEMP    WIND        PRES    WAVE   SWELL
                       AIR SEA DIR/SP/G            HT/PER HT/PER
                 (UTC) (F)     (DEG/KT/KT) (MB)    (FT/S) (FT/S)
BRANDYWINE LGT   1518   80     130/  5/  5   N/A
CAPE MAY NJ      1500   85 74  130/  3/  5 1012.5F
LEWES DE         1500   87 74  120/  8/ 10 1012.5F
OCEAN-CITY-INLET 1500   80 77  170/  5/  6 1013.3F
WACHAPREAGUE VA  1500   85 87  150/  7/  8 1012.6F
THOMAS POINT MD  1600   84 84  200/  6/  7 1013.6S
GOOSES REEF MD   1600   86 86  190/  8/ 10 1013.2R   0
COVE POINT MD    1500   83     180/  8/  9 1012.7F
SOLOMONS ISLAND  1500   85 86   90/  6/  8   N/A
BISHOPS HEAD MD  1500   85     130/  8/ 10 1012.6F
PINEY POINT MD   1500          140/  5/  6   N/A
POTOMAC MD       1600   85 86  120/  8/ 10 1011.0F   0
CAMBRIDGE MD     1500   90 88  110/  4/  7 1011.2F
LEWISETTA VA     1500   84 87   90/  7/  8 1011.8F
RAPPAHANNOCK LGT 1500          220/  5/  5 1013.1F
STINGRAY PT      1600   86 88  100/  6/  8 1012.9F   0
YORK RVR RNG VA  1500   84     140/  5/  6 1012.1F
YORKTOWN VA      1500   85 85   80/  4/  5 1012.1F
JAMESTOWN VA     1600   88 89   CALM  /  4   N/A     0
DOMINION TERM VA 1500   86     250/  5/  6 1012.8F
KIPTOPEKE VA     1500      81  250/  4/  5   N/A
CHES BAY BRIDGE  1500   83 83   40/  4/  5 1012.6F
CAPE HENRY VA    1500   82     100/  7/  7   N/A
WILLOUBY STN VA  1500   84     290/  5/  6   N/A
CAPE HENRY BUOY  1512      77                N/A     1/ 8
1ST LANDING BUOY 1600   83 83  130/  8/ 10 1012.1F   1/ 4
CAPE CHARLES BUO 1526      80                N/A     1/ 8
OFFSHORE WE BUOY 1521      83                N/A     1/ 8
64NM E OF VA BCH 1550   83 84  220/  8/  8 1013.0F   2/ 8   2/ 8
DUCK PIER NC     1500   84 76  190/  6/  9 1012.6F
44100 DUCK FRF   1505      80                N/A     1/ 8
44056 DUCK FRF   1511      80                N/A     1/ 8
OREGON INLET NC  1500   85 84  190/  8/ 10 1013.4F
HATTERAS NC      1500   85 82  220/  8/ 11 1013.6S
DIAMOND SHLS NC  1550   85 85  230/ 14/ 16 1013.7F   2/ 8   2/ 8
CAPE LOOKOUT NC  1600   86     240/ 10/ 12 1013.7F
$$




USA.gov is the U.S. government's official web portal to all federal, state and local government web resources and services.